FW7230 Weather Reports


Display with metric or nautical units.
time (UTC)temp
F
wind
direction
speed
MPH
gust
MPH
rain 1hr
in
rain 24hr
in
rain mn
in
humidity
%
barometer
mb
20260904145401 86 226 7.0 13.0 0.00 0.00 0.00 69 1014.3
20260904144345 86 152 5.0 10.0 0.00 0.00 0.00 71 1014.2
20260904143359 85 228 4.0 10.0 0.00 0.00 0.00 73 1014.2
20260904142345 84 211 3.0 8.0 0.00 0.00 0.00 74 1014.2
20260904141333 83 187 4.0 8.0 0.00 0.00 0.00 74 1014.2
20260904140352 83 243 5.0 9.0 0.00 0.00 0.00 74 1014.3
20260904135331 83 236 4.0 7.0 0.00 0.00 0.00 75 1014.4
20260904134332 82 198 3.0 6.0 0.00 0.00 0.00 76 1014.3
20260904133351 82 244 2.0 5.0 0.00 0.00 0.00 77 1014.4
20260904132332 81 133 3.0 8.0 0.00 0.00 0.00 78 1014.3
20260904131337 80 210 2.0 6.0 0.00 0.00 0.00 80 1014.3
20260904130354 79 165 2.0 6.0 0.00 0.00 0.00 82 1014.2
20260904125335 78 190 2.0 5.0 0.00 0.00 0.00 84 1014.1
20260904124422 76 195 0.0 2.0 0.00 0.00 0.00 90 1014.1
20260904122333 74 201 0.0 1.0 0.00 0.00 0.00 92 1014.1
20260904121338 73 229 0.0 0.0 0.00 0.00 0.00 91 1014.0
20260904120336 73 229 0.0 0.0 0.00 0.00 0.00 91 1013.8
20260904115342 73 229 0.0 0.0 0.00 0.00 0.00 91 1013.8
20260904114329 73 229 0.0 0.0 0.00 0.00 0.00 90 1013.6
20260904113329 73 229 0.0 0.0 0.00 0.00 0.00 91 1013.4
20260904112338 73 229 0.0 0.0 0.00 0.00 0.00 92 1013.4
20260904111422 72 229 0.0 0.0 0.00 0.00 0.00 92 1013.3
20260904110348 72 229 0.0 1.0 0.00 0.00 0.00 93 1013.3
20260904105329 71 229 0.0 0.0 0.00 0.00 0.00 92 1013.2
20260904104342 72 229 0.0 0.0 0.00 0.00 0.00 90 1013.1
20260904103400 72 229 0.0 0.0 0.00 0.00 0.00 90 1013.1
20260904103154 72 229 0.0 0.0 0.00 0.00 0.00 90 1013.1
20260904101333 73 229 0.0 0.0 0.00 0.00 0.00 89 1013.2
20260904100331 73 229 0.0 0.0 0.00 0.00 0.00 89 1013.1
20260904095335 74 229 0.0 0.0 0.00 0.00 0.00 85 1013.0
20260904094332 75 229 0.0 0.0 0.00 0.00 0.00 84 1012.8
20260904093349 75 229 0.0 1.0 0.00 0.00 0.00 85 1012.7
20260904092334 75 229 0.0 0.0 0.00 0.00 0.00 85 1012.6
20260904091403 75 229 0.0 0.0 0.00 0.00 0.00 86 1012.6
20260904090341 74 229 0.0 0.0 0.00 0.00 0.00 85 1012.4
20260904085346 75 229 0.0 0.0 0.00 0.00 0.00 84 1012.3
20260904084335 75 229 0.0 0.0 0.00 0.00 0.00 82 1012.2
20260904083354 76 229 0.0 0.0 0.00 0.00 0.00 82 1012.1
20260904082332 76 229 0.0 1.0 0.00 0.00 0.00 81 1012.1
20260904081340 77 229 0.0 1.0 0.00 0.00 0.00 80 1012.1
20260904080338 77 229 0.0 2.0 0.00 0.00 0.00 79 1012.2
20260904075346 77 233 1.0 3.0 0.00 0.00 0.00 78 1012.3
20260904074332 78 233 2.0 3.0 0.00 0.00 0.00 78 1012.3
20260904073352 78 225 2.0 4.0 0.00 0.00 0.00 77 1012.2
20260904072332 78 220 2.0 5.0 0.00 0.00 0.00 76 1012.3
20260904071335 79 205 2.0 4.0 0.00 0.00 0.00 75 1012.2
20260904070334 79 249 2.0 4.0 0.00 0.00 0.00 75 1012.2
20260904065339 79 221 3.0 6.0 0.00 0.00 0.00 75 1012.3
20260904064345 79 210 2.0 5.0 0.00 0.00 0.00 75 1012.3
20260904063341 79 229 1.0 4.0 0.00 0.00 0.00 76 1012.3
20260904062925 79 233 2.0 4.0 0.00 0.00 0.00 76 1012.2
20260904061347 79 233 2.0 5.0 0.00 0.00 0.00 76 1012.3
20260904060342 78 239 2.0 4.0 0.00 0.00 0.00 77 1012.3
20260904055331 78 222 0.0 3.0 0.00 0.00 0.00 77 1012.3
20260904054345 78 198 0.0 3.0 0.00 0.00 0.00 78 1012.3
20260904053344 79 229 0.0 3.0 0.00 0.00 0.00 77 1012.2
20260904052331 79 195 0.0 0.0 0.00 0.00 0.00 77 1012.2
20260904051339 79 229 0.0 3.0 0.00 0.00 0.00 77 1012.2
20260904050338 79 219 1.0 4.0 0.00 0.00 0.00 76 1012.3
20260904045334 79 200 1.0 3.0 0.00 0.00 0.00 76 1012.2
20260904044342 80 211 1.0 3.0 0.00 0.00 0.00 75 1012.2
20260904043340 80 238 0.0 3.0 0.00 0.00 0.00 74 1012.2
20260904042346 80 212 1.0 4.0 0.00 0.00 0.00 74 1012.3
20260904041334 81 219 0.0 4.0 0.00 0.00 0.00 73 1012.2
20260904040353 81 205 1.0 3.0 0.00 0.00 0.00 73 1012.2
20260904035332 81 204 1.0 4.0 0.00 0.00 0.00 72 1012.2
20260904034336 82 184 1.0 4.0 0.00 0.00 0.00 72 1012.2
20260904033333 82 158 1.0 4.0 0.00 0.00 0.00 71 1012.2
20260904032340 82 141 2.0 7.0 0.00 0.00 0.00 71 1012.2
20260904031346 82 108 1.0 4.0 0.00 0.00 0.00 70 1012.1
20260904030408 82 147 2.0 6.0 0.00 0.00 0.00 71 1012.1
20260904024352 83 92 2.0 4.0 0.00 0.00 0.00 70 1012.1
20260904023350 83 118 2.0 4.0 0.00 0.00 0.00 69 1012.0
20260904022337 84 99 2.0 3.0 0.00 0.00 0.00 69 1011.9
20260904021344 84 106 2.0 6.0 0.00 0.00 0.00 68 1011.8
20260904020343 84 101 2.0 4.0 0.00 0.00 0.00 67 1011.7
20260904015330 85 87 3.0 5.0 0.00 0.00 0.00 67 1011.4
20260904014340 85 75 4.0 6.0 0.00 0.00 0.00 67 1011.3
20260904014155 85 128 1.0 4.0 0.00 0.00 0.00 66 1011.1
20260904011326 86 128 2.0 7.0 0.00 0.00 0.00 65 1010.9
20260904010346 86 202 0.0 2.0 0.00 0.00 0.00 63 1011.0
20260904005334 88 154 0.0 3.0 0.00 0.00 0.00 61 1010.9
20260904004341 89 197 1.0 3.0 0.00 0.00 0.00 58 1010.8
20260904003426 91 201 1.0 4.0 0.00 0.00 0.00 56 1010.8
20260904002334 92 134 2.0 3.0 0.00 0.00 0.00 54 1010.9
20260904001342 93 196 3.0 6.0 0.00 0.00 0.00 53 1010.9
20260904000340 94 215 3.0 6.0 0.00 0.00 0.00 52 1010.8
20260903235348 94 155 3.0 8.0 0.00 0.00 0.00 51 1010.7
20260903234334 95 253 4.0 10.0 0.00 0.00 0.00 50 1010.7
20260903233347 96 121 5.0 9.0 0.00 0.00 0.00 49 1010.7
20260903232329 96 174 4.0 8.0 0.00 0.00 0.00 49 1010.7
20260903231337 97 166 3.0 7.0 0.00 0.00 0.00 49 1010.7
20260903230334 97 186 4.0 8.0 0.00 0.00 0.00 48 1010.7
20260903225342 97 146 4.0 12.0 0.00 0.00 0.00 48 1010.7
20260903224329 97 188 6.0 11.0 0.00 0.00 0.00 46 1010.6
20260903223349 97 165 4.0 12.0 0.00 0.00 0.00 48 1010.6
20260903222328 97 221 6.0 17.0 0.00 0.00 0.00 46 1010.6
20260903221334 97 181 8.0 14.0 0.00 0.00 0.00 45 1010.7
20260903220333 98 179 5.0 12.0 0.00 0.00 0.00 45 1010.7
20260903215336 97 201 6.0 13.0 0.00 0.00 0.00 47 1010.8
20260903214331 98 183 6.0 13.0 0.00 0.00 0.00 46 1010.8
20260903213349 98 187 7.0 13.0 0.00 0.00 0.00 45 1010.9
20260903212656 98 205 5.0 13.0 0.00 0.00 0.00 46 1011.1
20260903205343 98 180 7.0 15.0 0.00 0.00 0.00 46 1011.2
20260903204328 98 193 6.0 13.0 0.00 0.00 0.00 47 1011.2
20260903203326 98 208 5.0 16.0 0.00 0.00 0.00 46 1011.4
20260903202335 98 233 7.0 15.0 0.00 0.00 0.00 44 1011.4
20260903201342 98 165 9.0 16.0 0.00 0.00 0.00 44 1011.4
20260903200428 98 201 7.0 11.0 0.00 0.00 0.00 46 1011.4
20260903195356 98 176 7.0 15.0 0.00 0.00 0.00 46 1011.4
20260903194342 98 201 8.0 16.0 0.00 0.00 0.00 45 1011.6
20260903193428 97 212 7.0 14.0 0.00 0.00 0.00 48 1011.9
20260903191339 97 204 6.0 14.0 0.00 0.00 0.00 49 1012.0
20260903190336 96 166 7.0 16.0 0.00 0.00 0.00 49 1012.1
20260903185343 96 141 9.0 16.0 0.00 0.00 0.00 46 1012.1
20260903184331 96 179 8.0 17.0 0.00 0.00 0.00 48 1012.2
20260903183350 96 195 8.0 18.0 0.00 0.00 0.00 49 1012.3
20260903182328 96 166 7.0 18.0 0.00 0.00 0.00 49 1012.6
20260903181337 97 221 7.0 15.0 0.00 0.00 0.00 50 1012.7
20260903180334 96 197 8.0 14.0 0.00 0.00 0.00 51 1012.8
20260903175341 95 146 6.0 11.0 0.00 0.00 0.00 53 1012.9
20260903174659 94 194 9.0 15.0 0.00 0.00 0.00 53 1012.9
20260903173337 94 217 7.0 14.0 0.00 0.00 0.00 53 1012.9
20260903172340 94 190 5.0 12.0 0.00 0.00 0.00 55 1013.0
20260903171328 94 184 6.0 13.0 0.00 0.00 0.00 56 1013.1
20260903170326 93 179 10.0 15.0 0.00 0.00 0.00 55 1013.0
20260903165334 93 205 8.0 14.0 0.00 0.00 0.00 55 1013.2
20260903164429 91 217 8.0 14.0 0.00 0.00 0.00 58 1013.2
20260903161329 91 239 7.0 15.0 0.00 0.00 0.00 60 1013.2
20260903160348 91 212 7.0 13.0 0.00 0.00 0.00 60 1013.3
20260903155327 90 205 5.0 10.0 0.00 0.00 0.00 60 1013.4
20260903154334 90 172 6.0 12.0 0.00 0.00 0.00 62 1013.4
20260903153331 89 228 8.0 13.0 0.00 0.00 0.00 61 1013.5
20260903152339 89 181 4.0 12.0 0.00 0.00 0.00 64 1013.5
20260903151327 88 226 5.0 10.0 0.00 0.00 0.00 65 1013.5
20260903150346 88 208 5.0 10.0 0.00 0.00 0.00 65 1013.7